Regional Weather Roundup
Issued by NWS

Home | Current Version | Previous Version | Text Only | Print | Product List | Glossary Off
Versions: 1 2 3 4 5 6 7 8 9 10 11 12 13 14 15 16 17 18 19 20 21 22 23 24 25 26 27 28 29 30 31 32 33 34 35 36 37 38 39 40 41 42 43 44 45 46 47 48 49 50

126
ASUS44 KJAN 211810
RWRMS

MISSISSIPPI HOURLY WEATHER ROUNDUP
NATIONAL WEATHER SERVICE JACKSON MS
100 PM CDT MON JUL 21 2014

NOTE: "FAIR: INDICATES FEW OR NO CLOUDS BELOW 12,000 FEET WITH NO
SIGNIFICANT WEATHER AND/OR OBSTRUCTIONS TO VISIBILITY.

MSZ001>002-007>008-010>013-018>021-025>028-034>036-211900-
NORTHWEST MISSISSIPPI

CITY           SKY/WX    TMP DP  RH WIND       PRES   REMARKS
CLARKSDALE     FAIR      82  70  65 CALM      30.09S
CLEVELAND      FAIR      84  73  68 CALM      30.07F HX  91
GREENWOOD      PTSUNNY   85  67  54 NE7       30.07S
6HR MIN TEMP:  67; 6HR MAX TEMP:  86;

GREENVILLE     MOSUNNY   87  69  54 VRB6      30.07F HX  91
6HR MIN TEMP:  67; 6HR MAX TEMP:  87;

GRENADA        FAIR      84  66  54 CALM      30.08S
OLIVE BRANCH   MOSUNNY   82  68  61 E6        30.10F
OXFORD         FAIR      82  64  54 N5        30.10F
TUNICA         PTCLDY    82  68  61 E3        30.09F
$$

MSZ003>006-009-014>017-022>024-029>033-037>039-211900-
NORTHEAST MISSISSIPPI

CITY           SKY/WX    TMP DP  RH WIND       PRES   REMARKS
BELMONT        FAIR      83  67  58 N3        30.08F
COLUMBUS AFB   MOSUNNY   85  68  55 N9        30.07F
6HR MIN TEMP:  69; 6HR MAX TEMP:  87;

CORINTH        FAIR      84  66  54 N6        30.08F
GOLDN TRIANGLE MOSUNNY   88  68  51 N7        30.08S HX  91
STARKVILLE     FAIR      82  68  61 N5        30.07S
TUPELO         MOSUNNY   84  66  54 NE8       30.07F
6HR MIN TEMP:  69; 6HR MAX TEMP:  85;

$$

MSZ040-058-211900-
CENTRAL MISSISSIPPI

CITY           SKY/WX    TMP DP  RH WIND       PRES   REMARKS
JACKSON INTL   SUNNY     85  68  56 CALM      30.06F
6HR MIN TEMP:  72; 6HR MAX TEMP:  86;

JACKSON HAWKNS SUNNY     86  64  47 CALM      30.06F
6HR MIN TEMP:  71; 6HR MAX TEMP:  86;

MERIDIAN KEY   MOSUNNY   88  64  44 N5        30.05S
6HR MIN TEMP:  70; 6HR MAX TEMP:  88;

MERIDIAN NAS   MOSUNNY   87  66  49 VRB5      30.05F
6HR MIN TEMP:  70; 6HR MAX TEMP:  87;

RAYMOND        FAIR      84  79  84 N6        30.06F HX  96
VICKSBURG      MOSUNNY   85  69  58 NW6       30.07F
6HR MIN TEMP:  73; 6HR MAX TEMP:  86;

$$

MSZ059>079-211900-
SOUTH MISSISSIPPI

CITY           SKY/WX    TMP DP  RH WIND       PRES   REMARKS
BROOKHAVEN     FAIR      84  70  61 NW7       30.08F
COLUMBIA       FAIR      86  70  58 N7        30.04F HX  90
HATTIESBURG    MOSUNNY   88  67  49 N3        30.05F HX  91
6HR MIN TEMP:  73; 6HR MAX TEMP:  88;

MCCOMB         MOSUNNY   86  68  54 N9        30.06F
6HR MIN TEMP:  71; 6HR MAX TEMP:  86;

NATCHEZ        MOSUNNY   84  70  61 NW9       30.08F
6HR MIN TEMP:  68; 6HR MAX TEMP:  84;

PINE BELT      MOSUNNY   88  66  48 NW6       30.06F HX  90
6HR MIN TEMP:  70; 6HR MAX TEMP:  88;

$$

MSZ080>082-211900-
COASTAL MISSISSIPPI

CITY           SKY/WX    TMP DP  RH WIND       PRES   REMARKS
BAY ST LOUIS   MOSUNNY  N/A N/A N/A N8        30.04F
BILOXI         MOSUNNY   89  70  53 VRB3      30.03F HX  93
6HR MIN TEMP:  77; 6HR MAX TEMP:  89;

PASCAGOULA     MOSUNNY   88  69  53 VRB3      30.03F HX  92
6HR MIN TEMP:  76; 6HR MAX TEMP:  89;

GULFPORT       MOSUNNY   92  69  47 NW9       30.03S HX  97
6HR MIN TEMP:  79; 6HR MAX TEMP:  92;

$$



USA.gov is the U.S. government's official web portal to all federal, state and local government web resources and services.